Home > Time Zones > World Clock > Weather > Japan > Tsu > Past weeks

Flag for Japan Weather past 2 weeks in Tsu, Japan

Now
78 °F

Warm.


Feels Like: 79 °F
Forecast: 55 / 90 °F
Wind: 6 mph from Southeast

Location: Tsu

Current Time: May 26, 2015 at 11:24:39 AM

Latest Report: May 26, 2015 at 10:00 AM


Visibility: N/A

Pressure: 29.82 "Hg

Humidity: 62%

Dew point: 64 °F

Location of TsuLocation

Historic Weather in Tsu — Graph

°F

Tsu temperature yesterday

Maximum temperature yesterday: 76 °F (at 2:00 PM)
Minimum temperature yesterday: 62 °F (at 5:00 AM)
Average temperature yesterday: 69 °F

Past Weeks' High & Low Weather Summary

 TemperatureHumidityPressure
High84 °F (May 20, 3:00 PM)97% (May 12, 5:00 PM)30.24 "Hg (May 12, 5:00 PM)
Low56 °F (May 21, 2:00 AM)17% (May 17, 1:00 PM)29.47 "Hg (May 12, 8:00 PM)
Average68 °F65%29.83 "Hg
* Reported May 11 10:00 AM — May 26 10:00 AM, Tsu, Weather by CustomWeather, © 2015

Note: Actual official high and low records may vary slightly from our data, if they occured in-between our weather recording intervals... More about our weather records

Advertising

Tsu weather history for previous 24 hours

 ConditionsComfort  
Time TempWeatherWind HumidityBarometerVisibility
10:00 AM
Tue, May 26
78 °FWarm.6 mph62%29.82 "HgN/A
9:00 AM73 °FPassing clouds.6 mph67%29.83 "Hg12 mi
8:00 AM73 °FMild.3 mph63%29.84 "HgN/A
7:00 AM70 °FMild.2 mph68%29.83 "HgN/A
6:00 AM65 °FMild.3 mph78%29.82 "HgN/A
5:00 AM64 °FMild.3 mph83%29.81 "HgN/A
4:00 AM64 °FMild.3 mph81%29.80 "HgN/A
3:00 AM65 °FMild.3 mph81%29.80 "HgN/A
2:00 AM65 °FMild.2 mph81%29.80 "HgN/A
1:00 AM67 °FMild.3 mph82%29.81 "HgN/A
12:00 AM69 °FMild.2 mph83%29.82 "HgN/A
11:00 PM
Mon, May 25
70 °FMild.2 mph81%29.83 "HgN/A
10:00 PM71 °FMild.3 mph74%29.83 "HgN/A
9:00 PM72 °FOvercast.5 mph67%29.83 "Hg16 mi
8:00 PM72 °FMild.7 mph68%29.82 "HgN/A
7:00 PM73 °FMild.7 mph67%29.80 "HgN/A
6:00 PM73 °FMild.10 mph69%29.79 "HgN/A
5:00 PM73 °FMild.12 mph71%29.79 "HgN/A
4:00 PM73 °FMild.13 mph67%29.79 "HgN/A
3:00 PM74 °FOvercast.12 mph62%29.80 "Hg19 mi
2:00 PM76 °FMild.14 mph55%29.80 "HgN/A
1:00 PM75 °FMild.9 mph54%29.80 "HgN/A
11:00 AM71 °FMild.5 mph69%29.83 "HgN/A
Weather by CustomWeather, © 2015

See weather overviewHow to use our weather pages